GFSCGP_925_spd_084.txt.gz
Wind_Speed
4 3 6 7 6 7 2 5 5 3 5 5 7 5 8 7 5 7 8 8 6 6 0 8 18 24 27 27 32 33 31 28 29 28 23 19 20 19 17 15 14 13 12 11
2 7 10 11 11 11 9 5 4 2 3 3 5 9 8 7 6 6 7 6 7 4 4 8 17 24 28 31 33 31 30 32 31 28 24 19 20 18 16 15 14 14 13 13
7 9 11 8 8 10 8 4 5 4 3 3 4 5 4 6 5 4 4 6 5 9 8 7 13 21 25 31 33 31 32 31 29 25 21 14 17 13 16 17 17 17 16 16
5 4 7 4 7 8 8 6 5 6 4 3 1 4 4 3 7 4 3 2 5 4 4 5 8 16 24 28 28 30 29 29 26 23 21 20 21 17 17 17 16 16 18 18
4 3 4 4 4 6 6 1 5 4 4 2 1 1 6 1 6 7 6 5 2 2 1 6 7 14 20 24 25 26 26 26 24 23 22 20 18 16 11 13 13 13 15 17
4 2 3 1 3 2 8 6 7 5 3 1 5 5 5 5 5 0 3 5 0 4 4 4 9 16 17 19 22 23 23 23 23 23 22 19 15 11 10 10 10 10 9 9
4 3 4 2 4 5 4 5 3 2 1 4 1 5 10 2 2 3 8 6 2 3 2 6 8 15 19 20 20 18 19 20 18 16 16 14 12 10 10 9 8 8 6 3
6 2 5 6 1 4 2 6 4 5 4 4 2 5 5 2 3 3 6 4 3 3 3 6 7 15 20 18 16 15 15 14 11 11 9 8 7 6 5 3 2 2 1 1
8 5 5 1 2 3 3 2 3 4 2 2 2 5 3 2 3 4 5 5 3 3 5 7 9 16 18 17 15 15 15 13 11 10 8 7 5 4 3 2 2 1 1 2
6 3 1 2 3 1 4 6 3 3 2 2 3 4 5 4 6 4 4 5 4 4 6 7 8 16 16 17 17 16 15 15 12 9 7 5 4 3 2 2 1 1 1 2
6 2 3 8 1 4 2 1 6 4 3 2 2 5 5 4 8 9 8 7 6 6 7 7 9 16 18 18 17 16 13 11 9 6 5 3 3 3 2 1 1 2 3 5
3 3 3 4 3 1 1 2 5 4 5 2 2 5 0 5 7 9 9 7 5 5 6 6 11 16 16 15 14 12 10 7 5 4 3 4 5 3 1 2 3 4 6 9
2 0 2 3 3 4 3 3 3 4 3 4 5 5 2 2 5 7 9 7 7 6 7 6 8 10 12 12 11 10 8 7 5 4 4 3 1 1 2 3 5 8 8 9
3 1 4 4 3 2 4 4 4 4 3 5 6 5 3 3 6 6 6 7 8 6 7 6 5 7 10 10 9 8 6 4 3 2 1 1 1 3 6 7 9 8 10 14
2 2 2 5 5 3 3 5 5 7 4 5 3 6 6 6 8 8 7 6 7 7 7 6 6 6 9 9 8 6 5 4 3 3 1 4 6 7 9 10 8 10 14 17
2 2 2 3 3 2 4 6 6 4 2 6 1 6 6 2 6 6 7 7 7 7 7 7 7 10 9 8 5 4 3 3 2 1 4 7 8 9 11 10 11 14 17 18
2 2 4 4 5 6 5 3 4 4 4 5 5 8 4 2 1 2 5 7 7 7 7 8 8 10 9 6 4 2 1 2 3 5 7 9 10 11 12 11 13 16 18 19
1 2 1 3 5 2 4 1 1 4 5 5 2 1 2 2 4 4 4 6 8 8 8 8 11 11 8 5 3 2 0 2 5 8 12 13 14 14 12 12 14 18 20 20
1 2 2 2 1 6 2 1 0 1 5 2 4 5 3 4 3 6 5 2 6 7 9 13 13 11 8 5 3 1 2 4 6 9 11 13 13 13 12 14 17 20 21 20
3 3 3 2 2 3 3 1 1 1 4 5 4 6 6 4 3 3 1 4 7 16 18 16 13 10 7 4 2 2 3 6 8 10 13 14 13 12 13 15 18 20 18 18
2 2 4 2 2 7 5 2 1 4 5 3 3 5 7 4 4 4 6 6 13 16 16 14 11 8 4 1 2 5 7 9 9 10 11 11 11 11 13 16 18 17 18 21
5 4 3 2 1 5 5 2 3 5 2 2 2 5 6 5 6 7 7 8 10 13 12 10 8 4 1 2 4 6 8 7 8 9 10 11 12 12 14 16 17 17 20 24
2 5 2 7 5 4 5 4 3 4 4 4 5 6 7 7 6 8 7 7 8 12 10 7 4 1 2 2 4 6 8 9 10 11 11 12 13 15 15 16 18 21 22 24
2 2 2 3 2 6 8 4 4 6 4 4 3 5 7 8 9 7 7 6 8 9 7 5 3 2 4 4 5 7 8 8 9 10 11 12 15 15 14 16 18 19 24 21
3 1 1 6 8 6 7 7 5 6 4 5 5 5 7 9 7 7 6 6 9 8 6 4 1 1 3 4 5 6 6 7 8 9 11 14 14 14 15 18 19 21 20 18
5 6 4 5 3 3 6 4 4 8 6 8 8 6 5 6 9 7 6 10 9 6 4 1 0 3 4 4 5 5 6 6 7 10 12 13 14 14 16 20 24 21 18 19

GFSCGP_925_spd_090.txt.gz
Wind_Speed
4 7 11 14 14 18 16 17 21 18 17 17 22 18 12 11 11 13 13 13 13 15 15 23 19 22 21 19 23 22 20 19 22 22 18 15 14 12 11 11 12 12 11 12
6 12 15 15 13 15 17 18 19 18 17 17 19 20 17 12 13 14 15 15 14 12 13 15 21 23 22 22 22 22 20 21 20 19 17 12 14 11 10 10 12 12 12 11
17 20 20 11 14 16 18 18 19 18 12 16 15 19 21 13 12 12 13 12 12 13 14 15 18 21 21 22 23 23 23 22 22 19 18 13 11 9 9 11 11 11 11 10
9 10 11 12 14 15 18 18 21 16 11 13 15 12 20 18 16 15 15 14 12 11 9 10 14 17 21 21 20 21 21 23 21 21 18 17 14 11 11 10 11 10 11 11
7 18 17 12 16 14 18 15 16 19 13 17 11 10 10 8 16 17 16 16 15 13 14 12 13 14 17 18 19 19 20 22 20 20 17 15 10 8 8 8 9 10 9 10
14 12 7 9 7 7 11 10 12 3 3 7 14 12 11 10 11 11 8 12 13 11 8 8 9 12 14 15 16 18 21 19 19 19 15 12 11 9 7 6 7 8 8 7
12 6 8 6 8 4 8 10 4 5 3 4 3 7 8 4 3 1 1 8 9 6 6 6 8 11 13 15 16 18 19 18 18 16 13 11 9 8 7 7 7 7 7 6
6 6 12 11 6 5 7 10 2 3 5 6 4 6 3 4 2 1 1 5 6 5 4 5 7 10 12 14 15 16 19 17 15 14 12 9 8 6 6 6 6 5 5 5
5 5 8 6 6 5 2 2 6 6 3 3 5 5 6 1 2 2 5 7 6 4 5 6 7 10 13 14 15 18 20 17 14 13 11 9 8 7 7 7 6 5 4 4
5 4 8 12 5 2 3 11 4 6 2 3 4 1 3 3 3 5 7 7 6 6 7 8 9 12 14 15 16 16 16 16 14 13 12 11 10 9 8 6 5 4 3 3
7 3 7 6 5 7 1 4 6 1 3 4 3 6 6 7 6 6 7 7 7 9 9 10 12 15 16 16 17 18 17 17 15 13 12 11 9 8 6 5 4 3 3 3
3 3 1 5 8 6 7 6 5 3 2 2 3 3 5 6 4 5 9 8 9 10 10 11 14 16 17 17 17 17 16 15 13 12 11 9 7 6 4 4 3 3 3 4
2 1 4 3 7 2 4 2 2 2 2 2 1 3 2 7 6 6 9 10 10 11 12 11 13 14 15 15 15 15 14 13 12 10 9 8 6 4 3 3 3 3 5 7
5 3 4 6 6 3 5 3 2 4 2 1 6 8 6 7 5 8 9 10 11 11 12 11 11 12 13 13 13 13 13 11 10 9 8 6 4 3 2 3 4 6 7 7
4 6 3 9 11 7 8 7 5 5 7 5 5 4 8 8 3 9 11 12 12 12 11 11 10 11 12 13 12 12 11 10 9 8 6 4 3 1 2 4 6 7 8 9
3 4 5 4 1 2 7 8 7 8 7 9 10 12 5 3 3 8 11 12 12 11 11 11 10 12 12 12 11 11 9 8 7 5 4 3 0 2 4 6 8 9 10 11
4 5 4 3 3 7 1 4 1 2 3 5 5 4 6 3 5 4 8 10 10 11 12 11 11 12 11 11 10 8 8 6 5 4 3 1 3 5 7 8 9 10 11 13
6 6 3 4 7 1 4 2 3 4 4 5 8 4 4 3 4 5 3 6 8 10 11 10 12 12 11 10 8 7 6 5 4 1 1 2 4 6 8 9 9 11 12 14
7 5 3 3 3 2 2 3 3 4 4 6 3 2 3 4 2 5 5 2 3 8 10 12 13 13 11 9 8 7 5 3 1 1 3 4 6 7 8 9 10 11 12 15
2 6 4 2 1 2 3 1 1 2 3 3 1 3 4 3 2 3 4 6 9 13 14 15 14 12 11 8 7 5 3 1 3 3 4 6 6 7 8 9 11 11 13 14
3 3 6 4 3 1 2 2 1 1 4 2 0 2 4 1 4 7 8 10 13 15 16 14 12 10 8 6 4 2 1 3 3 3 5 5 6 8 9 10 11 12 13 15
2 3 3 2 2 1 1 1 2 2 1 1 1 2 4 6 8 9 10 11 13 15 14 11 11 8 5 3 1 1 2 2 2 3 5 6 7 8 10 11 11 12 14 16
3 2 3 4 2 2 3 5 3 1 2 0 1 2 6 10 9 10 11 11 12 13 11 9 8 6 3 2 0 2 1 2 3 4 5 7 9 10 10 11 11 13 14 15
2 1 3 3 2 2 4 4 4 5 6 2 1 4 8 10 12 12 11 10 11 11 10 7 6 3 2 1 0 1 2 2 4 5 7 8 10 11 11 11 11 12 14 15
3 3 2 6 8 3 3 2 2 4 5 4 4 5 9 11 12 13 11 11 11 10 8 6 3 2 1 1 1 1 3 3 4 5 8 10 11 10 11 10 12 12 13 15
9 10 6 5 2 3 8 5 4 6 5 8 8 9 8 12 14 14 11 13 11 9 7 4 3 1 1 1 1 3 3 3 5 7 10 10 10 10 10 12 13 11 14 16

GFSCGP_925_spd_096.txt.gz
Wind_Speed
8 8 9 16 16 15 15 14 17 18 18 18 17 15 15 15 11 13 13 12 13 13 10 20 21 25 27 28 30 35 33 27 24 24 23 14 14 16 17 15 13 13 13 15
9 12 12 14 14 12 16 18 16 15 16 15 17 19 16 12 13 12 7 6 10 8 17 18 26 29 31 29 29 35 33 31 28 28 25 21 22 18 17 16 14 15 14 15
11 12 10 16 14 14 15 16 15 17 14 17 14 18 17 13 14 13 10 9 8 12 11 18 23 31 28 24 20 27 29 31 30 28 22 21 20 18 17 18 17 17 15 14
8 8 13 12 14 14 12 17 14 11 15 8 13 12 15 16 16 16 13 9 6 9 7 12 9 16 23 19 16 25 28 27 24 22 27 29 26 23 21 20 19 18 16 16
11 12 9 11 13 15 15 4 9 16 14 11 15 9 12 13 17 17 13 11 11 8 6 7 14 16 21 20 26 25 26 27 22 24 23 22 24 21 19 18 18 17 17 15
11 1 4 7 13 15 12 6 8 10 5 9 12 3 6 9 16 15 9 10 10 12 10 7 8 22 20 25 25 24 25 25 21 25 22 22 20 21 22 20 19 17 16 14
11 9 11 6 14 5 6 1 4 3 1 5 8 5 11 18 19 3 18 13 13 13 9 7 6 10 16 18 23 22 26 22 22 21 20 22 20 20 20 18 17 16 13 12
11 9 12 9 10 7 13 4 2 4 2 3 5 5 4 18 16 14 18 13 15 10 9 8 8 11 15 13 14 17 20 25 20 21 19 19 19 18 17 16 12 16 13 13
9 6 14 6 5 3 7 4 6 3 4 3 4 5 9 17 3 9 15 9 9 9 8 9 8 15 16 14 13 16 21 22 19 19 19 17 16 13 11 11 9 11 11 10
4 8 11 6 6 4 3 8 3 1 4 5 5 12 7 7 7 10 12 10 9 10 9 7 7 13 15 16 15 19 20 20 21 19 17 16 14 12 12 12 12 10 11 10
11 5 11 8 3 7 1 3 2 2 5 3 3 6 9 8 8 11 11 9 8 8 7 8 9 19 20 19 22 20 20 19 18 17 18 18 17 14 13 14 12 11 9 7
7 4 7 7 5 1 6 5 4 2 4 4 3 5 8 9 12 12 10 8 7 7 8 8 12 17 18 18 18 18 19 19 21 19 18 18 15 14 13 11 10 7 5 4
6 5 7 8 2 2 5 9 7 6 4 10 3 4 4 9 10 9 9 8 7 8 8 7 8 12 16 17 20 20 21 20 18 18 17 15 13 11 11 9 7 3 2 3
1 5 9 9 12 10 8 8 6 4 1 2 0 5 9 9 9 9 8 8 7 7 7 7 7 10 18 19 21 20 18 16 16 16 15 13 11 9 7 5 2 2 4 5
5 6 11 14 18 6 7 7 7 4 4 3 6 7 7 6 4 9 9 9 8 7 8 7 7 7 17 19 19 19 16 14 14 14 13 11 9 6 3 1 2 3 5 6
7 6 13 15 14 5 7 6 7 5 6 2 5 7 6 6 7 8 9 8 8 8 8 7 8 11 15 18 18 16 13 13 12 13 12 8 5 3 0 2 5 6 7 8
4 4 6 5 14 11 3 5 6 4 7 6 3 4 5 7 8 7 7 7 8 8 8 8 8 10 15 17 15 13 12 9 11 11 9 5 2 1 2 5 6 8 9 11
5 6 3 5 10 2 3 5 4 4 7 7 5 7 6 7 8 8 9 2 9 9 8 8 11 16 16 13 15 15 11 9 8 7 5 2 1 3 5 6 7 9 11 12
6 3 4 2 4 3 4 4 3 4 4 5 5 5 6 5 7 7 7 9 8 9 10 16 19 16 15 15 13 11 10 8 5 3 4 4 4 5 6 8 9 10 12 13
5 6 3 4 1 2 3 3 3 2 1 5 3 4 3 4 0 1 4 8 10 18 19 19 18 17 16 12 10 10 8 3 5 8 6 5 5 6 7 8 10 12 13 15
3 4 6 6 4 2 3 3 0 1 1 4 5 5 5 3 2 6 7 8 14 17 18 17 18 18 13 10 7 8 5 11 8 4 4 5 5 7 8 10 11 12 14 15
2 2 3 4 3 3 3 2 3 1 2 3 4 5 7 7 7 7 8 7 11 13 14 18 18 14 11 7 4 6 11 7 3 3 4 5 6 8 11 11 15 12 13 15
1 1 2 2 1 2 3 4 4 3 1 3 3 5 8 8 7 7 7 7 9 13 14 17 15 12 10 8 7 10 7 4 4 6 7 5 8 11 12 16 13 14 12 14
6 4 2 5 3 4 6 4 4 3 2 2 3 3 7 8 9 8 7 7 8 13 13 13 12 12 10 7 6 6 6 6 7 9 9 10 11 11 13 14 13 12 14 15
6 3 4 6 7 4 7 4 4 2 2 2 4 2 6 9 8 7 7 7 13 13 12 10 11 10 9 5 6 7 7 7 9 11 13 13 12 13 13 12 12 15 12 12
8 8 5 6 7 3 3 6 5 4 3 3 6 5 5 8 8 9 7 14 16 13 12 12 10 9 7 7 9 8 7 8 9 11 13 13 14 15 12 14 15 14 14 21

GFSCGP_925_spd_099.txt.gz
Wind_Speed
3 1 5 4 4 9 6 8 10 12 13 8 14 15 10 9 11 9 8 8 14 15 11 26 29 38 35 34 38 48 40 39 40 34 32 30 29 25 22 18 18 18 19 19
6 4 5 5 8 8 8 10 10 10 7 7 13 14 11 12 8 14 12 10 11 8 8 16 30 33 36 33 34 40 45 42 41 38 36 34 29 25 22 20 19 16 18 20
3 10 9 9 8 9 7 7 8 13 9 3 7 10 9 14 8 12 9 6 6 9 9 2 22 33 32 31 37 39 41 37 36 34 34 27 24 20 22 22 20 20 17 20
6 4 7 7 9 8 9 4 8 10 5 5 2 11 8 9 14 8 9 9 10 8 5 10 10 26 31 30 36 28 29 32 35 36 34 27 30 23 26 27 24 22 19 16
7 5 4 4 5 7 9 16 5 6 5 2 8 2 7 5 10 7 9 9 14 15 14 11 18 23 25 32 31 29 32 36 35 34 30 27 23 24 22 24 23 22 19 18
12 3 1 3 9 9 1 4 8 3 2 4 5 5 5 2 3 10 14 9 13 9 7 7 11 22 26 29 26 28 31 29 28 27 28 32 31 27 25 25 23 22 21 18
6 4 3 3 6 5 5 4 3 4 2 2 9 3 5 11 10 10 18 13 10 12 9 12 9 10 22 24 28 30 29 25 29 29 27 25 27 28 25 25 25 23 21 19
4 8 3 5 4 5 6 4 1 3 5 4 9 7 6 12 11 14 8 8 12 8 6 9 9 15 18 21 23 22 26 24 21 26 20 22 19 21 26 25 22 21 22 19
4 6 9 11 4 3 5 3 6 2 3 3 2 5 8 13 6 14 12 17 13 11 8 8 9 18 21 19 18 24 22 22 23 23 21 17 22 23 20 18 20 19 19 19
4 6 6 8 2 2 2 7 1 2 5 5 7 11 6 5 7 12 11 7 12 7 6 7 6 13 16 18 20 23 26 24 25 25 22 21 22 22 21 21 22 20 18 15
3 1 8 5 3 2 4 3 3 3 1 3 4 5 6 9 9 10 6 11 11 4 6 8 10 20 23 23 24 23 25 26 23 21 19 19 18 17 17 17 16 15 12 8
1 2 5 8 9 4 3 3 3 3 3 0 1 3 6 9 8 9 8 7 6 8 8 8 12 20 23 24 24 23 22 22 23 23 22 20 19 18 17 15 12 8 7 6
4 3 5 10 7 5 4 5 4 3 3 0 3 3 4 6 8 7 9 7 7 8 8 8 9 12 18 20 21 22 23 23 23 24 24 22 20 18 17 15 11 8 5 3
3 2 5 5 9 5 8 6 4 4 2 2 2 1 6 4 7 6 6 7 7 7 8 7 7 9 18 22 24 22 22 24 23 21 20 20 18 16 13 9 6 3 2 1
2 3 4 9 15 12 9 4 6 3 2 2 3 3 4 2 7 6 7 6 7 7 8 7 7 8 19 23 23 22 22 22 21 21 20 17 12 8 5 4 3 1 1 2
6 4 5 7 6 5 3 6 5 4 6 6 4 5 6 8 6 6 7 7 7 7 7 7 8 14 18 22 20 18 17 17 17 18 16 11 9 6 4 3 3 3 5 8
3 1 5 5 8 9 4 4 3 4 4 1 3 1 3 7 10 6 2 8 7 7 7 7 8 14 20 20 18 16 14 18 16 13 10 9 6 5 3 2 3 4 5 6
4 3 1 5 7 3 4 1 3 8 4 6 5 4 6 6 4 5 6 6 8 9 8 7 14 18 15 15 17 18 17 15 13 11 9 7 5 4 3 3 5 6 8 9
8 4 3 0 2 5 1 2 1 2 2 3 4 5 5 5 5 7 8 5 6 8 10 18 23 24 22 20 18 17 14 10 9 11 10 8 5 4 4 5 5 6 9 11
4 4 3 3 1 2 2 1 0 2 2 1 4 5 5 5 2 2 4 7 10 17 21 24 25 22 19 14 14 13 9 12 11 9 7 5 5 4 4 4 8 11 12 12
2 2 6 4 3 5 2 2 1 1 5 2 5 3 4 4 4 6 7 7 14 19 23 26 23 19 15 11 11 12 12 10 7 5 4 4 3 4 5 6 7 9 9 10
6 5 4 2 2 5 1 0 2 5 2 3 3 5 5 7 7 8 8 8 13 17 22 24 22 17 13 11 10 13 11 7 5 4 4 4 2 3 5 8 11 9 9 8
2 5 4 6 5 6 2 3 2 4 4 2 4 4 8 8 6 8 7 8 11 20 21 21 19 16 12 12 13 11 7 5 5 6 5 4 4 6 8 9 10 9 9 12
5 3 1 3 3 5 6 4 4 3 3 1 4 6 8 9 9 7 7 7 10 19 20 19 18 16 13 11 11 10 7 5 7 10 11 10 9 10 11 10 9 11 12 9
5 3 3 4 7 5 5 4 7 5 5 4 3 5 9 10 8 8 7 7 15 19 17 17 19 15 12 13 13 9 7 5 7 9 11 11 12 12 11 10 10 12 7 13
5 7 5 6 6 4 4 4 3 3 2 6 6 4 7 10 10 8 7 18 19 18 20 19 17 16 16 15 12 9 6 7 7 7 10 11 11 13 14 11 13 13 12 17

GFSCGP_925_spd_102.txt.gz
Wind_Speed
1 2 5 9 6 5 6 5 9 9 7 7 11 10 8 9 6 9 9 9 10 16 22 24 31 38 39 37 37 47 47 46 45 45 40 36 33 28 23 23 21 21 23 22
5 3 7 7 8 6 7 7 11 8 5 7 9 16 7 7 8 8 9 8 12 6 8 14 27 34 36 37 44 44 47 49 45 43 37 34 35 30 26 21 21 22 23 23
3 5 6 3 5 7 5 7 6 11 5 5 5 15 5 6 6 6 9 7 11 9 11 15 21 33 34 32 37 37 43 45 44 42 38 28 29 24 20 20 22 23 23 23
5 3 4 4 5 4 8 6 12 14 7 6 2 11 4 6 9 5 8 9 8 7 12 16 20 22 25 26 28 30 38 42 41 42 36 34 28 25 25 31 27 24 22 23
7 4 4 3 5 3 10 12 8 12 13 4 5 3 6 4 5 7 9 9 9 9 18 19 20 30 36 28 17 26 32 32 35 35 34 34 29 27 25 29 25 23 22 21
6 4 2 3 7 8 13 6 13 3 1 3 7 4 5 4 8 11 13 10 9 6 11 13 20 28 28 31 27 28 28 25 26 31 30 30 24 22 22 27 25 25 24 22
7 6 5 2 8 5 5 6 4 5 4 3 11 5 5 7 10 7 13 10 7 8 0 8 14 15 21 26 24 27 28 21 27 27 27 25 23 24 26 26 25 25 23 21
4 9 2 4 4 5 4 3 1 3 5 5 5 3 5 13 8 7 11 10 12 13 9 10 9 17 18 19 21 22 24 22 23 22 30 25 20 19 25 23 24 24 21 19
4 6 6 5 5 1 3 4 2 1 3 4 2 2 3 4 9 10 13 14 11 10 9 12 11 12 10 13 17 18 20 22 25 25 20 19 18 25 22 20 19 21 19 18
2 6 3 8 5 4 1 6 1 2 5 5 6 4 5 4 4 7 5 7 10 6 7 8 7 13 19 18 21 22 22 22 22 20 19 18 18 20 18 19 20 19 19 19
1 2 8 4 3 5 3 3 1 4 1 3 4 4 6 4 0 1 6 7 6 6 7 8 8 16 20 22 24 24 24 23 24 23 24 24 23 22 21 21 20 21 18 15
1 2 5 7 8 7 4 3 3 3 6 0 1 4 5 5 6 6 7 8 4 3 9 9 12 16 20 21 22 23 24 26 24 24 25 24 23 22 21 20 16 12 11 9
1 1 5 10 6 6 4 6 3 3 3 3 2 3 3 6 6 7 7 7 7 9 10 8 10 12 17 22 22 23 23 24 24 25 26 25 24 22 19 16 13 10 8 6
3 2 6 5 9 3 7 13 10 3 2 2 3 3 4 4 3 3 5 6 6 6 7 6 7 10 18 20 24 25 25 26 26 26 24 23 20 18 15 12 10 8 6 5
3 3 4 8 15 10 13 11 5 4 3 3 3 1 5 4 6 4 4 5 6 6 6 6 6 8 18 24 25 25 24 24 23 23 21 18 15 12 10 8 7 5 3 2
5 4 5 6 3 4 3 3 3 3 3 3 3 3 4 4 5 4 7 7 6 6 6 7 7 12 17 23 23 22 22 21 19 17 15 12 11 8 7 5 3 2 1 2
2 2 3 5 6 8 2 3 1 2 1 2 2 2 2 5 5 2 3 7 8 8 7 7 7 13 18 18 19 19 19 18 15 13 11 10 8 8 5 3 3 2 2 3
3 2 2 4 6 1 5 1 4 5 1 1 2 2 4 5 4 2 2 7 8 8 8 7 13 16 16 18 18 19 16 14 12 11 10 8 7 5 4 2 2 2 3 5
7 3 1 0 2 5 3 3 4 3 2 2 4 3 4 5 1 3 4 5 7 7 10 16 19 19 20 20 19 18 15 13 12 11 9 7 5 3 1 1 2 5 8 9
5 2 3 1 0 4 4 2 1 3 4 4 5 6 6 3 2 4 3 3 7 15 20 25 25 23 21 17 15 15 14 13 11 8 5 2 1 1 2 2 5 7 9 10
3 2 5 3 3 7 6 2 2 2 6 4 5 5 6 5 4 4 6 7 13 18 23 24 21 18 16 15 14 15 12 10 6 4 2 1 0 1 1 2 5 8 7 7
6 6 4 3 2 6 5 3 5 5 2 4 3 3 3 4 6 6 6 8 13 17 20 22 21 16 12 13 14 13 10 6 4 2 3 2 1 1 2 5 5 6 6 7
3 5 3 8 5 4 5 6 3 6 5 4 4 4 7 8 5 7 7 7 12 19 20 20 20 17 14 13 12 11 7 4 4 5 5 4 3 4 6 7 6 4 7 7
3 2 3 2 3 3 5 2 4 6 6 5 5 6 8 8 8 7 7 7 11 17 20 19 18 16 14 12 10 9 6 5 5 6 5 5 6 8 7 5 5 8 4 7
5 1 2 6 6 7 5 6 4 3 3 4 5 7 9 9 9 9 6 8 16 18 18 19 18 16 14 12 10 7 5 2 4 5 5 7 7 8 9 7 6 8 8 11
6 11 7 10 7 5 4 3 5 6 6 7 7 6 6 10 11 9 7 17 20 19 18 18 17 17 16 13 10 6 3 3 3 3 6 5 8 11 10 9 10 9 12 13

GFSCGP_925_spd_105.txt.gz
Wind_Speed
4 4 4 9 5 5 6 4 6 9 9 5 8 8 9 10 8 8 8 7 8 10 17 30 26 33 27 32 32 35 38 40 44 44 43 37 35 33 31 28 25 24 25 24
5 3 5 7 6 5 6 7 12 10 6 4 9 11 8 7 7 8 7 8 8 7 9 13 26 28 34 37 39 42 47 43 49 39 37 29 39 32 28 25 24 24 25 24
3 6 6 5 7 6 6 7 6 10 10 4 7 7 6 4 5 6 5 7 7 10 11 14 19 31 32 33 40 47 51 42 37 44 37 29 34 26 24 21 21 21 24 25
4 5 5 7 5 2 6 4 9 13 10 6 8 5 5 7 7 5 7 9 10 9 8 13 18 26 33 33 28 27 25 26 36 44 35 40 32 23 20 25 26 19 22 22
7 5 7 4 5 2 9 11 8 7 7 4 6 2 7 7 7 14 12 13 14 9 8 12 16 29 31 29 28 27 22 20 22 31 30 32 24 25 24 23 18 21 17 19
6 4 3 3 10 4 10 4 4 4 3 2 4 6 5 4 8 14 11 12 11 7 5 5 10 17 28 31 36 38 33 28 22 27 26 26 24 26 20 20 22 20 20 16
8 6 6 2 7 3 9 6 4 6 5 6 6 2 6 8 8 9 11 9 9 7 6 7 9 14 22 21 19 20 27 24 29 28 24 27 27 22 12 19 24 25 23 19
4 9 5 5 2 5 4 3 2 3 5 5 7 7 5 5 6 7 11 10 11 12 8 6 3 5 11 14 14 15 17 20 24 16 19 13 13 18 20 20 23 25 22 24
5 6 5 4 4 2 5 5 2 3 4 3 3 2 5 9 10 11 12 14 15 13 12 9 7 11 10 13 15 16 16 19 24 20 20 9 17 16 13 15 20 21 20 19
1 6 3 7 2 3 2 6 2 3 5 5 6 3 5 13 13 12 11 11 10 11 11 11 10 14 17 14 21 22 16 19 19 18 19 16 15 14 13 13 17 18 18 18
1 2 7 4 2 2 5 4 3 4 1 2 5 4 4 6 9 7 8 7 8 9 9 8 8 12 21 20 23 20 16 17 16 16 14 14 12 12 12 14 15 16 17 18
1 3 5 7 6 3 3 2 3 3 3 2 1 5 4 5 5 6 6 7 5 7 11 10 9 15 19 18 20 19 18 19 18 18 19 18 17 17 19 20 20 18 17 14
2 1 5 9 6 5 4 4 2 1 2 3 2 5 3 5 7 7 6 5 6 9 10 5 9 12 14 19 21 23 23 23 23 26 28 27 26 24 22 19 16 13 11 9
2 2 5 5 7 0 7 13 4 1 1 1 3 5 8 5 4 5 5 5 7 7 5 5 6 10 18 21 24 24 23 24 25 26 26 25 22 20 17 15 12 8 7 5
3 3 3 7 13 6 8 10 8 2 3 2 2 2 5 6 1 2 4 4 7 6 6 6 6 7 16 21 24 26 26 25 25 25 24 21 18 15 13 11 10 8 6 4
3 3 3 6 3 2 6 8 5 2 2 0 1 1 2 4 2 3 2 6 6 6 6 6 6 11 16 21 22 23 22 21 19 19 19 16 14 12 10 8 6 4 3 2
1 1 2 5 5 7 3 4 2 1 1 2 3 2 4 0 1 2 2 5 6 6 6 7 7 11 17 19 21 20 19 17 17 16 14 12 10 9 7 5 4 3 1 2
4 3 2 4 7 2 4 4 3 4 3 3 2 2 4 4 2 3 4 4 6 7 7 6 11 13 14 15 16 16 14 13 13 13 11 9 8 7 6 3 2 1 1 4
4 4 0 0 2 6 2 3 3 3 4 6 4 4 3 3 0 3 3 5 6 6 7 12 14 14 14 15 16 15 12 11 11 10 9 7 5 4 2 1 1 2 5 7
4 4 3 1 1 4 4 1 1 2 5 6 7 6 6 4 1 4 2 5 6 11 15 17 14 17 17 15 15 15 13 12 11 7 5 3 1 1 1 1 3 5 7 9
3 2 5 3 3 8 7 3 3 1 6 5 6 6 8 5 5 2 4 5 11 15 19 19 20 18 16 14 15 15 11 10 7 5 3 2 1 1 2 3 6 7 8 8
7 6 4 2 2 7 6 4 6 6 1 4 4 5 6 4 5 5 6 7 13 17 19 18 18 15 13 13 13 13 10 6 4 3 3 3 3 2 4 6 8 8 7 9
2 6 5 8 6 5 4 5 4 5 5 4 4 4 6 7 6 8 7 8 11 18 20 17 18 15 12 11 11 11 7 4 4 5 6 6 5 6 8 8 7 6 9 9
3 3 3 1 6 8 7 5 4 7 6 5 4 7 8 7 8 7 8 7 11 17 20 20 20 18 14 11 11 10 7 5 4 5 5 5 7 8 8 8 7 9 9 12
5 4 5 7 7 7 8 7 6 6 5 5 4 7 8 8 7 8 7 9 17 20 19 20 20 18 15 12 11 8 5 3 3 4 5 6 7 10 11 10 8 9 10 13
7 8 7 11 7 6 6 3 5 7 8 8 7 5 6 9 11 9 7 17 21 22 21 18 18 18 16 12 10 6 4 2 2 3 4 5 8 9 11 11 11 9 12 15

GFSCGP_925_spd_108.txt.gz
Wind_Speed
4 5 3 6 3 6 6 4 7 10 9 4 7 9 13 11 7 8 8 9 9 8 12 20 25 26 24 25 28 31 30 30 32 32 31 30 31 32 30 30 31 30 27 26
6 1 4 5 6 5 7 7 8 8 6 4 8 10 15 12 9 7 7 8 8 7 7 9 20 25 27 31 31 34 31 30 33 32 32 25 33 30 28 26 28 28 27 26
3 5 4 3 8 6 6 5 5 11 8 2 8 6 6 5 5 6 6 5 7 7 10 7 12 24 29 33 36 37 37 35 24 28 26 28 26 23 24 22 22 20 23 25
5 3 4 7 5 2 7 2 6 7 5 4 6 4 5 10 7 6 9 8 9 11 8 7 11 19 27 35 35 37 40 38 25 31 29 33 25 19 17 27 22 19 20 17
5 5 5 4 6 2 8 10 2 1 4 3 8 2 6 7 10 16 16 14 14 13 9 10 12 26 31 29 35 37 37 38 35 30 31 32 23 22 21 21 25 25 23 23
6 4 2 3 8 1 8 3 3 2 3 3 7 4 5 10 15 16 13 13 14 15 7 6 8 13 18 19 23 27 33 29 29 28 27 26 22 15 12 12 19 20 26 23
8 5 4 1 6 4 8 6 5 6 6 3 6 4 4 17 13 8 13 12 11 7 7 5 4 6 13 18 19 18 19 18 20 22 21 21 16 15 6 17 25 30 27 23
4 8 6 6 1 3 4 3 3 2 5 5 5 3 5 15 15 12 14 11 12 13 11 10 7 7 11 15 17 15 15 16 20 22 24 27 21 14 15 21 22 26 29 26
5 6 5 3 3 2 3 4 1 1 0 2 4 4 5 12 18 15 13 14 15 14 11 12 11 12 12 17 16 17 18 17 21 23 18 17 14 26 15 18 22 22 20 20
1 5 2 6 2 4 5 3 3 3 5 6 4 4 7 14 15 14 13 13 12 11 13 13 11 15 19 19 22 21 19 19 18 25 8 14 18 19 16 12 12 15 17 17
2 2 7 3 3 1 4 3 3 1 2 1 6 4 3 4 7 11 10 10 11 12 10 10 12 17 22 24 23 21 18 19 15 13 14 13 13 12 10 9 12 12 13 13
0 3 5 6 3 3 0 2 3 3 5 2 1 5 2 4 3 3 8 9 8 7 8 9 15 17 21 22 21 21 22 20 18 16 16 14 13 12 13 14 13 14 16 16
2 1 4 8 4 4 4 2 0 1 2 2 2 5 1 5 6 5 5 6 5 6 6 8 15 14 16 19 21 23 23 23 21 22 23 23 24 24 23 21 19 17 16 14
3 2 5 5 6 1 6 10 1 1 2 2 4 6 6 7 5 5 5 5 5 6 7 11 10 11 15 19 23 24 24 25 27 29 29 27 25 24 21 19 16 14 12 10
3 2 3 6 9 5 7 10 7 5 4 3 4 3 4 3 2 3 4 4 6 6 8 7 7 8 15 20 23 24 25 25 25 26 25 23 20 18 16 14 12 11 9 8
3 2 4 5 3 1 6 8 7 6 3 5 3 5 3 1 2 3 5 5 5 5 6 6 5 9 13 19 21 22 22 22 22 22 21 18 16 15 13 12 11 9 8 6
2 1 2 5 5 9 5 4 4 2 3 4 4 5 1 3 4 3 3 5 6 6 6 6 6 11 15 17 19 20 19 18 19 19 16 15 13 13 12 10 8 8 7 7
4 3 2 4 7 2 5 3 4 5 4 6 3 4 4 3 1 4 4 6 7 7 7 6 10 12 13 14 16 16 15 14 14 14 12 11 10 9 7 6 5 4 3 4
3 4 1 0 2 7 4 3 5 4 5 8 6 4 2 3 2 4 7 6 7 7 8 12 11 11 12 14 14 15 15 14 13 12 10 8 5 4 2 2 2 1 3 5
5 5 3 2 0 4 4 2 2 2 4 6 7 7 6 3 2 4 3 6 8 15 18 17 14 15 15 14 14 15 14 14 13 10 7 4 3 2 2 1 2 3 6 8
4 0 4 3 3 8 7 3 2 1 6 5 6 6 8 6 5 2 4 3 11 19 21 19 19 19 17 16 16 16 14 12 9 6 4 3 2 2 3 3 5 7 9 8
7 6 4 2 2 7 6 4 6 6 2 3 5 6 8 5 3 3 4 6 11 17 21 22 22 18 15 14 14 14 12 8 6 5 5 5 5 5 5 7 8 8 8 10
3 6 5 9 7 5 4 5 3 3 4 5 4 5 6 6 6 7 6 7 9 18 22 22 23 19 15 13 12 14 10 7 7 7 7 6 5 6 8 9 8 9 10 10
4 4 3 1 6 11 8 7 6 6 7 4 4 6 7 6 7 7 7 6 10 17 19 20 22 20 17 14 12 12 10 7 6 6 5 5 5 7 8 9 9 9 10 13
5 6 6 6 10 5 9 8 8 7 6 5 5 7 8 7 7 7 7 8 15 19 19 22 23 22 19 16 14 11 8 5 5 5 4 5 7 8 10 10 10 10 11 13
6 7 6 6 10 6 5 6 3 8 9 9 8 5 5 9 9 9 8 16 20 21 23 20 20 22 19 16 13 10 6 4 4 4 3 4 7 8 11 12 12 10 12 16

GFSCGP_925_spd_111.txt.gz
Wind_Speed
4 4 2 4 3 5 6 5 12 15 13 5 10 15 14 16 12 11 11 12 10 8 9 8 18 24 22 25 28 31 31 29 28 28 26 26 28 28 27 27 26 25 25 25
4 1 2 4 5 4 7 10 9 10 4 4 9 16 10 12 11 8 7 9 11 10 12 6 7 20 24 27 31 31 34 34 34 30 24 21 26 26 29 29 25 25 23 21
3 3 3 2 6 7 7 4 7 7 7 2 12 5 8 20 9 8 13 10 10 9 13 12 6 19 23 24 31 32 30 32 33 30 25 21 15 14 20 22 21 22 22 20
4 3 4 4 4 2 5 2 7 4 2 5 10 3 5 20 20 22 18 15 13 14 11 12 10 15 23 28 28 32 35 33 30 26 26 27 25 14 17 25 25 25 22 19
4 5 4 3 4 2 7 10 1 2 1 1 13 2 2 16 20 25 24 17 14 12 11 13 12 15 23 22 31 33 31 32 30 31 23 26 12 12 16 19 16 24 29 27
4 3 2 3 4 0 11 3 3 3 1 3 9 3 5 11 17 21 20 15 14 12 10 7 7 8 12 13 17 22 23 18 20 21 18 18 20 18 19 18 13 12 23 32
7 4 4 2 5 4 10 6 4 4 6 3 5 3 4 15 21 15 15 14 12 13 10 4 6 9 12 13 13 15 20 16 16 16 16 19 22 11 21 21 28 27 31 32
4 6 6 6 2 3 4 3 3 1 3 6 7 7 6 11 14 15 14 13 14 16 13 13 8 11 14 17 20 21 21 19 14 13 19 23 12 14 10 16 21 26 30 34
3 5 5 0 3 2 2 4 2 3 1 3 3 1 4 17 20 20 18 18 16 14 14 14 14 13 19 20 19 22 22 24 18 17 17 23 16 11 9 11 10 14 19 24
2 4 2 5 0 4 4 3 1 3 5 5 5 3 9 13 16 16 15 15 15 14 14 13 14 18 20 21 22 20 21 27 22 16 24 20 16 13 11 8 9 8 14 13
3 2 5 2 4 2 3 3 4 1 1 1 5 3 5 1 9 11 12 12 12 13 12 12 14 22 22 28 24 25 25 21 16 15 14 13 9 5 8 8 8 8 10 11
1 3 4 4 5 3 1 2 3 2 2 0 1 3 2 2 4 6 7 9 11 10 11 10 16 20 23 22 26 26 26 22 21 20 19 17 15 13 12 13 12 11 13 12
3 1 3 5 2 2 2 1 2 2 2 2 1 2 1 2 2 5 6 7 8 9 10 11 16 18 20 21 21 27 23 22 20 23 24 24 24 24 24 23 22 20 19 17
3 3 4 4 4 1 5 4 1 2 1 1 4 4 2 3 2 3 4 5 6 9 10 10 11 16 18 18 20 26 26 27 29 32 32 30 27 26 24 22 20 17 15 13
3 3 3 6 10 4 6 14 6 6 4 3 2 3 2 2 2 2 2 4 7 8 8 10 10 13 18 20 22 25 27 27 28 29 28 26 24 22 20 19 17 15 13 11
2 1 2 4 1 4 6 8 6 5 4 5 4 4 3 1 2 4 4 4 6 6 7 9 10 16 16 17 22 24 24 24 25 25 24 20 19 17 17 15 13 11 9 7
1 1 3 4 4 9 4 4 5 3 4 4 4 4 4 3 4 4 5 6 7 7 7 8 9 13 14 18 21 21 21 21 22 21 19 17 15 14 12 10 8 7 5 5
4 2 1 4 6 2 3 1 3 4 5 6 2 4 5 4 3 3 4 6 7 8 8 8 12 13 15 18 20 20 19 19 19 18 16 15 14 12 9 7 6 5 4 4
3 4 1 1 2 7 3 3 5 5 5 7 6 4 4 4 2 3 6 6 8 9 10 11 14 15 18 19 20 21 19 18 17 15 14 11 8 7 5 4 3 3 3 5
5 4 2 2 1 4 4 1 2 2 4 4 5 6 6 4 2 2 5 5 7 13 17 18 16 16 17 16 17 18 17 16 14 11 9 6 5 4 3 2 1 2 5 6
3 1 4 2 3 8 7 1 1 2 4 4 5 5 7 5 3 3 5 5 10 14 19 19 18 18 17 16 16 17 15 13 11 8 7 5 5 5 3 2 2 4 5 5
7 7 4 2 3 6 6 4 5 5 2 4 5 5 8 5 5 4 5 8 12 15 18 19 20 19 18 18 17 16 13 11 9 8 8 8 7 4 3 4 5 4 5 6
4 6 6 9 6 4 6 5 4 4 4 4 4 6 8 7 6 6 6 9 12 18 20 22 22 20 17 17 16 15 12 11 10 9 9 7 5 4 5 5 5 5 6 6
4 4 3 2 5 12 12 7 6 7 7 4 5 6 7 6 7 6 7 9 13 17 20 24 23 19 18 16 13 13 12 10 8 8 6 5 5 5 5 6 6 6 7 9
4 6 6 6 8 4 9 9 7 4 5 5 4 6 9 7 7 8 9 11 16 19 23 26 23 21 20 18 16 13 11 9 8 7 6 5 4 4 6 7 6 7 8 10
5 7 6 7 6 4 5 4 4 6 9 10 8 5 5 9 9 10 9 17 21 21 23 23 23 24 22 20 16 13 10 8 7 7 6 3 3 4 6 6 7 8 9 10

GFSCGP_925_spd_114.txt.gz
Wind_Speed
2 3 6 8 6 10 11 12 13 11 8 10 9 14 6 12 10 10 9 10 9 8 6 2 8 18 20 21 24 26 25 24 24 24 24 22 16 15 15 17 15 16 16 21
3 3 6 9 7 9 11 11 12 4 5 4 15 4 4 11 10 10 13 11 10 10 8 3 2 13 18 20 24 26 26 25 27 24 26 17 19 13 12 14 16 15 18 22
4 4 7 8 11 13 9 10 13 10 10 3 14 6 4 17 14 15 13 12 10 10 11 7 4 9 18 22 25 26 26 28 28 27 28 21 18 15 13 14 17 17 18 19
3 2 6 9 10 10 9 14 10 5 5 7 11 4 5 20 20 20 18 17 14 12 10 9 7 9 17 21 23 26 29 28 28 28 28 21 19 11 13 23 21 23 23 23
5 5 7 8 11 9 10 13 4 2 2 5 15 4 10 21 20 26 23 20 16 15 13 11 9 10 11 17 20 20 20 20 21 24 24 22 17 14 15 22 25 24 26 31
4 3 2 5 15 5 16 5 3 2 2 3 7 5 10 13 18 21 22 17 14 13 13 8 4 5 8 13 16 19 19 20 20 24 20 18 13 13 16 18 21 26 27 27
6 2 1 3 10 2 16 11 2 1 3 5 8 6 5 15 21 16 14 15 14 13 11 8 5 8 11 13 16 18 19 19 20 20 17 15 13 9 10 18 20 19 23 30
5 3 6 9 4 7 8 6 3 3 6 5 9 10 6 14 12 16 16 14 15 15 12 12 8 12 14 15 16 21 25 23 20 20 19 20 12 19 16 15 16 19 19 19
5 2 2 2 3 4 5 5 2 1 2 4 3 12 4 15 16 18 19 18 17 16 14 13 14 15 19 20 21 24 26 22 21 26 31 21 16 13 11 13 12 17 18 23
2 5 2 2 3 2 5 1 1 2 5 5 5 11 7 16 16 16 19 18 16 15 15 14 14 19 21 22 20 23 20 17 19 18 15 14 10 9 13 10 10 10 10 15
1 3 1 3 2 4 1 2 3 1 3 4 6 6 5 8 11 13 13 13 13 13 12 12 15 19 21 26 28 26 25 20 20 19 13 14 9 9 9 11 10 10 9 10
2 3 5 3 3 3 2 2 4 4 2 1 3 3 5 5 6 8 9 10 11 10 10 12 16 20 23 20 26 24 24 23 19 18 16 18 19 17 16 15 13 11 11 11
3 2 5 4 5 3 3 1 1 2 2 2 3 4 3 3 4 6 7 8 9 11 12 12 17 19 19 21 20 22 24 20 17 19 21 20 22 22 21 19 18 16 16 15
4 3 6 6 7 4 8 5 8 5 4 3 3 5 2 3 3 5 4 6 7 10 10 12 13 15 17 19 19 21 22 20 20 20 22 22 20 19 19 19 17 16 14 13
3 4 4 10 15 14 15 15 11 11 9 5 3 4 2 3 4 5 5 4 7 9 8 9 11 14 18 20 20 21 21 20 20 21 21 20 18 17 17 17 15 14 12 11
2 1 3 6 4 4 9 12 11 11 10 12 10 8 3 6 5 6 7 7 8 8 8 10 11 15 16 17 18 18 17 17 17 19 19 17 16 15 15 13 12 11 10 9
3 2 3 3 4 13 9 4 10 6 7 5 4 3 9 7 8 8 8 8 9 9 10 10 11 13 14 15 15 16 15 14 15 16 15 14 13 13 11 10 10 9 8 7
4 3 2 5 9 3 3 3 1 7 7 10 3 6 9 7 6 8 9 11 11 11 11 11 13 13 13 13 13 13 12 12 13 13 12 10 10 9 8 8 7 6 6 7
5 5 3 3 3 10 1 2 4 4 5 11 11 7 8 6 5 7 10 11 13 12 13 13 14 14 13 14 14 14 12 11 11 10 8 7 6 6 6 6 6 6 6 7
5 6 4 2 3 3 2 1 2 1 7 4 9 10 10 10 7 5 14 12 12 16 16 17 16 15 14 13 12 12 12 11 9 7 6 5 4 4 3 3 2 2 4 5
6 5 9 7 5 7 6 4 2 3 2 2 8 8 11 9 1 7 12 12 15 18 19 19 17 17 15 15 13 12 11 10 9 7 6 5 4 4 2 1 3 5 6 6
9 8 5 5 5 6 11 6 5 2 3 3 6 7 11 8 6 7 9 11 15 18 19 19 19 18 17 16 15 13 11 10 8 7 6 6 4 2 3 3 3 3 5 7
6 5 4 9 5 1 12 0 6 3 2 4 6 7 9 10 10 9 9 11 16 20 21 20 20 19 17 17 15 14 12 10 9 8 7 5 3 2 1 2 3 3 5 6
7 7 3 3 7 13 9 10 9 9 9 6 6 5 8 12 11 11 9 11 16 20 21 21 21 20 18 16 14 13 14 12 10 9 8 6 4 3 1 2 2 3 5 7
3 11 9 11 11 6 12 13 13 11 11 12 11 11 12 11 11 11 11 13 18 21 21 23 22 21 20 18 15 15 14 13 11 9 8 7 4 2 1 2 1 3 5 6
8 9 8 9 6 6 8 6 7 10 12 12 12 11 11 12 12 11 11 18 21 23 23 22 21 21 21 19 17 15 14 12 11 10 8 6 5 2 1 1 2 6 6 5

GFSCGP_925_spd_117.txt.gz
Wind_Speed
1 9 6 9 9 11 13 14 14 11 7 10 11 8 5 6 5 8 12 11 13 13 6 5 11 16 16 15 24 25 26 23 27 24 20 18 20 21 16 15 16 17 18 18
7 3 6 9 11 13 15 12 13 7 3 8 12 4 3 10 12 15 11 11 11 11 12 13 10 13 15 17 26 44 32 33 30 27 23 19 22 16 14 13 14 16 18 18
8 6 6 9 11 13 14 9 15 15 13 7 16 8 8 17 13 15 18 19 15 13 11 12 6 11 12 18 23 23 28 30 30 25 25 24 24 19 14 14 13 16 18 21
6 3 6 10 10 12 11 17 13 8 7 7 10 3 7 16 15 18 16 16 16 13 14 10 10 11 13 16 16 17 23 25 27 26 23 27 18 15 12 20 20 19 18 24
5 6 8 9 11 11 10 14 8 6 9 7 12 5 5 19 16 22 20 15 14 12 13 14 10 11 12 11 10 16 8 11 21 25 22 19 14 13 13 20 20 23 25 26
5 3 3 7 14 7 14 14 5 6 8 1 13 5 5 12 12 17 16 16 14 15 14 14 8 7 7 7 8 10 15 6 20 25 19 14 9 8 11 14 19 22 25 27
5 4 1 6 13 3 15 14 3 2 4 7 13 3 7 12 11 11 12 14 14 13 14 14 4 7 7 11 15 13 16 21 15 22 18 17 11 5 8 14 19 22 20 16
4 4 4 8 6 7 8 7 3 2 5 6 8 8 6 9 5 8 14 14 13 14 12 13 11 14 10 13 21 25 24 22 18 19 25 23 14 10 6 8 7 10 14 12
4 0 3 4 4 7 9 7 3 2 5 5 2 9 5 10 14 16 16 16 16 14 13 13 14 15 14 18 22 26 24 21 22 25 22 17 15 12 5 4 6 9 8 10
3 4 3 2 2 3 4 3 2 1 4 5 3 9 8 14 15 15 17 16 14 13 14 13 13 18 21 22 24 26 26 26 26 21 19 17 13 14 11 6 7 8 7 10
4 3 5 3 1 5 2 2 3 3 2 4 7 7 8 10 10 12 13 11 13 13 13 12 13 19 21 24 23 25 28 26 26 23 19 15 13 11 11 10 9 7 6 7
3 5 4 2 4 1 3 4 6 4 6 4 4 4 7 7 8 9 10 10 10 11 9 9 15 19 22 21 21 21 22 24 22 21 22 20 19 19 18 16 14 13 13 10
1 3 5 8 4 3 4 1 4 6 4 7 4 4 4 5 8 7 9 10 9 10 10 10 15 16 17 18 20 23 24 24 25 25 25 23 22 20 18 20 18 18 17 15
1 6 8 7 7 5 9 8 6 6 4 8 3 5 4 4 4 7 8 8 9 8 8 12 11 15 17 18 19 21 20 22 21 22 23 22 19 20 18 17 16 16 15 14
4 6 6 11 11 11 13 12 12 13 12 7 8 6 3 1 4 6 8 8 9 10 9 10 11 14 17 20 20 19 20 21 20 20 21 19 17 15 16 15 14 14 12 12
4 4 6 12 7 5 10 9 10 12 12 12 13 12 0 6 7 7 8 9 9 9 9 10 11 15 16 17 17 17 18 18 18 18 17 16 15 14 13 12 11 11 10 9
4 3 4 3 2 8 11 4 11 12 7 9 6 5 8 7 7 8 9 9 10 10 10 10 10 13 15 15 15 16 15 15 15 15 14 13 12 11 10 9 8 8 7 6
4 5 3 5 8 4 4 3 2 9 6 8 6 3 6 5 6 8 10 11 11 11 11 10 12 12 13 13 14 14 14 14 14 13 12 10 9 8 8 7 7 6 6 5
7 5 4 3 4 11 1 4 4 7 5 9 11 7 8 6 6 7 10 11 12 13 14 13 12 12 12 12 12 13 12 12 12 11 9 7 7 6 6 6 6 5 5 5
7 8 5 2 3 3 6 5 3 1 7 4 8 10 11 10 7 7 14 12 13 17 17 17 17 16 14 12 12 11 10 10 9 8 7 6 6 5 5 5 4 4 5 5
6 6 11 9 5 6 4 8 5 4 3 2 7 9 12 11 1 7 15 13 17 18 18 18 18 16 15 15 13 11 10 9 8 8 6 6 5 5 4 3 4 5 6 6
10 9 6 7 6 7 11 7 5 5 4 5 7 7 10 10 5 7 12 13 16 18 20 20 19 17 16 16 14 12 10 9 8 7 7 6 5 4 3 2 2 3 4 5
7 7 4 9 5 4 15 2 7 3 5 5 7 7 8 9 9 9 11 13 16 20 21 21 19 18 17 17 15 14 13 11 9 7 7 5 4 3 2 1 1 2 4 6
10 10 4 3 11 12 9 12 7 8 8 6 7 7 9 10 11 12 11 12 15 21 22 22 21 20 19 17 15 13 14 12 10 8 7 6 4 3 1 1 2 3 3 4
5 13 12 9 9 2 9 14 14 12 12 12 11 11 11 11 11 13 13 13 18 20 22 23 22 21 20 19 16 15 15 13 11 9 8 7 5 4 2 1 0 1 2 2
8 9 10 8 8 11 8 11 13 12 12 13 13 12 11 11 12 12 12 17 19 21 23 23 23 22 22 20 18 17 15 13 12 11 9 8 6 4 3 2 2 3 3 5

GFSCGP_925_spd_120.txt.gz
Wind_Speed
5 4 3 8 6 9 11 12 11 10 5 4 5 4 5 13 14 14 14 15 17 15 18 13 4 7 12 17 19 26 26 20 18 26 32 30 25 27 25 18 19 18 19 19
4 6 7 5 8 10 10 13 8 8 7 5 6 9 14 10 11 8 11 12 16 18 18 16 11 9 14 12 17 21 30 22 15 8 24 26 27 27 21 19 20 20 21 19
4 4 3 7 9 11 11 9 11 12 11 11 6 6 5 7 10 10 10 10 13 15 18 17 19 6 8 12 17 20 29 22 31 31 26 27 27 24 19 20 22 23 24 23
6 3 3 7 7 10 8 11 10 10 5 4 5 2 4 5 8 14 12 9 11 14 15 16 19 15 5 8 13 21 19 25 18 23 29 29 22 22 18 21 21 19 19 22
2 3 5 7 7 8 6 11 13 6 7 5 7 3 5 12 12 15 12 11 11 9 11 15 17 26 11 9 16 17 26 18 12 28 32 28 27 24 23 17 18 18 18 22
7 3 1 4 11 10 9 14 4 4 3 2 6 2 4 5 4 10 12 11 12 11 12 12 22 29 13 16 15 21 26 18 19 14 18 22 23 21 16 13 12 15 18 20
7 6 4 2 8 3 9 10 3 3 3 1 6 3 1 5 1 4 12 12 11 11 11 11 12 5 22 17 14 20 24 24 26 21 14 13 9 17 17 14 15 16 17 19
3 3 1 5 2 4 8 5 2 2 3 4 6 2 2 1 6 8 9 10 12 14 13 14 13 16 16 18 19 27 24 24 20 23 22 23 18 14 9 10 9 10 12 14
4 1 4 2 2 4 5 4 1 1 5 2 4 4 4 9 8 9 11 13 13 13 14 13 17 20 17 19 19 24 26 23 25 25 23 22 18 17 14 13 14 11 9 10
2 4 2 4 3 4 2 1 1 2 3 5 2 5 4 8 9 11 13 12 12 12 12 12 14 21 23 25 25 27 28 27 26 27 25 24 19 17 16 15 15 9 8 7
3 3 4 2 3 4 2 1 2 2 1 2 4 3 6 7 7 9 9 11 12 11 11 10 13 21 23 26 27 29 30 30 29 26 22 22 18 17 16 15 15 12 9 8
4 4 4 4 6 4 3 3 2 1 4 3 4 2 7 8 6 10 10 9 5 8 8 9 14 18 21 21 23 22 24 25 25 25 24 25 23 22 22 23 22 18 14 10
2 4 4 3 1 2 4 6 1 3 3 6 1 2 6 8 7 8 8 8 6 7 7 9 13 15 16 19 21 23 23 22 22 26 26 25 24 26 28 28 25 23 21 20
1 3 6 5 4 1 4 4 4 4 1 5 2 3 7 7 8 7 7 7 5 6 7 9 9 11 14 18 20 20 21 21 21 25 25 27 25 25 26 24 23 23 19 20
2 4 7 9 8 7 7 7 7 8 8 3 4 5 3 8 9 8 7 9 8 6 7 9 8 10 13 16 21 21 21 21 22 24 25 24 23 24 23 21 21 20 19 18
5 3 4 10 13 7 7 6 6 7 9 7 7 8 8 8 9 8 8 7 7 7 7 8 7 14 13 15 17 18 19 20 21 22 22 21 20 20 18 17 18 17 15 13
6 3 2 4 3 6 8 11 12 9 6 8 7 4 8 7 8 8 9 8 7 8 7 7 8 14 16 16 17 17 17 17 18 19 18 17 16 16 15 15 15 13 13 11
5 3 1 4 7 4 4 4 3 4 7 8 4 6 8 8 7 7 9 9 9 9 8 7 13 16 17 16 16 17 17 17 16 16 15 13 13 13 13 12 12 10 9 9
4 4 2 2 4 8 8 4 4 5 5 10 7 9 6 7 6 5 9 8 10 9 13 16 17 16 17 17 16 16 16 16 16 15 13 12 11 12 11 10 9 8 6 6
5 4 2 3 3 4 4 5 3 3 4 4 9 9 9 8 5 5 10 9 12 19 21 22 22 20 18 17 16 16 16 15 14 13 12 11 12 11 11 9 7 6 5 4
4 4 7 5 4 6 6 9 4 2 5 3 4 9 9 7 4 2 12 8 19 21 23 24 23 21 21 20 18 16 15 15 14 12 11 11 10 10 8 7 5 4 4 4
8 8 5 4 5 8 13 6 6 5 3 5 5 7 8 8 6 7 9 9 13 17 22 26 24 22 22 20 19 18 16 17 13 12 12 11 10 8 6 5 5 4 4 4
5 7 6 8 6 3 14 3 7 7 6 6 6 5 8 9 8 7 8 9 10 20 22 25 24 23 24 22 20 19 21 17 15 13 12 10 8 6 6 5 5 5 4 4
5 4 3 4 5 9 10 5 7 5 5 7 6 7 7 7 9 9 7 8 8 19 21 25 24 23 25 24 21 22 22 19 17 15 13 11 9 7 5 5 4 4 4 3
5 10 8 3 3 5 8 9 8 7 6 4 7 7 9 8 7 9 9 8 13 19 24 27 23 23 25 26 21 26 23 20 18 16 14 11 9 9 6 5 4 3 2 2
6 8 7 7 8 8 7 14 10 9 10 10 9 8 8 8 8 8 10 17 18 19 24 25 26 26 27 27 24 26 24 22 20 18 15 13 10 9 7 5 4 2 2 5

GFSCGP_925_spd_126.txt.gz
Wind_Speed
1 3 3 6 6 4 2 3 4 4 2 2 2 3 2 4 6 9 9 9 11 13 11 16 19 23 28 11 13 22 25 22 24 28 27 27 27 33 27 28 29 27 30 30
3 5 8 7 0 1 1 2 4 6 5 4 4 2 3 4 1 3 8 11 11 12 15 16 21 18 23 20 8 16 20 20 16 25 23 22 20 25 28 26 29 26 20 29
5 4 5 1 1 3 2 4 3 5 6 3 5 2 4 4 3 5 7 9 12 10 12 13 18 14 17 19 3 8 13 14 18 20 22 16 12 15 16 22 21 21 23 24
4 1 3 2 2 3 3 7 5 3 3 2 3 4 3 5 8 4 7 12 11 13 11 9 14 14 15 11 2 10 13 18 18 18 20 18 19 6 2 19 18 20 18 20
5 4 2 2 4 3 8 3 6 3 3 2 4 3 5 5 7 9 15 14 14 13 13 13 11 14 14 8 10 16 19 19 15 13 14 16 19 19 20 20 14 15 17 17
5 0 4 4 2 4 5 2 7 5 3 2 4 3 4 4 4 6 12 13 14 14 14 13 12 6 5 13 15 19 20 21 17 14 11 21 29 31 30 25 26 17 15 11
2 3 2 2 2 3 8 5 2 4 4 4 1 2 6 2 4 5 11 11 13 12 14 15 14 11 10 13 14 17 22 19 17 13 16 22 25 34 36 31 23 20 20 17
4 4 5 2 3 2 1 5 4 5 1 4 4 2 5 4 6 3 6 8 10 13 12 14 13 13 15 16 18 17 15 16 14 20 19 16 15 18 23 23 23 18 21 20
4 3 1 2 2 4 1 1 3 5 3 3 3 2 3 4 3 3 7 7 9 10 12 13 16 19 18 19 18 19 17 14 15 13 11 16 17 15 14 13 12 13 16 18
5 1 4 3 2 1 2 5 2 3 2 2 4 3 4 4 4 3 5 6 6 8 9 9 12 14 18 21 23 22 22 22 21 20 17 18 17 15 15 14 15 13 12 12
3 3 2 3 4 6 1 1 1 3 4 4 1 5 5 6 5 6 1 1 3 6 7 7 11 14 17 21 24 24 24 26 24 23 21 21 20 19 18 16 17 13 11 11
3 4 3 5 2 2 4 5 5 4 3 1 3 5 3 7 7 7 5 2 3 6 6 6 10 12 15 18 20 22 25 25 23 22 22 22 20 19 17 15 13 13 14 12
6 2 1 5 4 3 3 4 4 4 2 4 5 5 3 4 7 6 7 5 3 6 6 5 8 10 12 13 18 21 21 21 21 22 23 24 22 22 21 18 20 18 16 18
5 3 5 6 4 4 4 5 5 6 3 3 5 3 5 7 7 7 7 7 6 6 7 6 6 7 9 12 14 15 17 20 23 25 26 27 26 27 26 24 22 22 20 18
5 5 5 6 7 3 6 6 8 8 6 6 4 7 7 13 12 10 9 8 8 9 8 6 7 6 11 13 14 18 20 21 24 25 26 26 25 25 25 26 24 23 23 23
2 2 3 4 4 8 6 9 10 9 6 7 5 9 7 8 8 8 10 11 10 8 9 7 5 10 15 18 19 21 23 24 24 27 26 25 25 24 24 24 24 23 21 20
7 5 3 4 3 3 6 9 10 6 6 10 9 10 6 4 12 13 13 12 13 12 11 10 9 14 18 24 25 24 24 23 23 24 22 22 21 22 21 20 19 18 16 14
7 6 3 3 2 2 5 1 6 11 6 8 5 6 11 12 14 10 11 14 12 13 13 10 16 19 22 23 23 25 25 24 23 23 22 21 20 19 19 18 18 18 16 12
4 5 3 4 3 6 4 5 6 7 7 11 10 7 8 6 5 4 11 14 16 15 18 22 26 29 29 28 26 25 23 21 21 20 19 18 18 19 18 17 17 16 14 11
5 5 4 3 4 7 5 3 5 5 5 8 14 10 9 8 5 9 13 13 11 21 24 25 31 32 33 33 32 31 28 26 24 22 21 20 20 20 19 17 15 13 12 12
4 2 6 3 4 8 7 6 4 4 7 6 11 10 10 10 10 3 12 10 21 25 26 30 33 31 35 35 35 32 32 31 27 23 22 21 19 17 15 14 13 13 12 13
9 8 5 3 2 8 9 5 8 7 2 6 7 9 15 13 8 6 10 12 12 17 23 31 28 28 35 37 37 33 33 30 27 25 24 22 19 16 14 13 13 11 12 13
5 8 8 10 9 4 12 2 6 6 6 6 7 7 14 10 8 8 8 11 15 23 25 30 30 29 36 37 38 34 33 32 30 28 26 24 20 18 17 17 17 16 15 14
4 5 5 4 8 9 10 5 5 7 7 6 6 8 10 8 9 8 7 8 11 21 24 28 27 26 29 38 37 36 34 34 32 29 27 24 23 20 18 16 16 16 16 15
5 13 8 4 5 3 7 13 6 7 5 6 5 8 13 9 8 8 7 9 15 21 24 28 29 27 31 38 37 35 37 36 33 30 28 25 23 22 20 17 16 15 12 11
6 8 7 5 10 6 7 10 10 9 9 9 9 6 6 10 11 9 8 15 19 20 24 25 27 27 31 36 37 35 38 38 34 32 30 28 25 22 21 19 16 10 9 9

GFSCGP_925_spd_129.txt.gz
Wind_Speed
1 2 5 7 6 4 2 3 4 4 4 3 5 5 5 4 4 6 7 9 11 9 12 21 21 19 18 8 19 25 27 28 32 28 27 21 27 26 26 31 30 32 33 33
3 6 9 5 4 4 4 2 4 5 4 2 3 6 3 5 4 2 8 12 10 9 9 14 19 18 14 7 17 23 25 22 23 26 32 20 24 24 26 24 23 29 33 33
7 5 5 5 3 3 2 4 3 5 5 1 0 6 2 4 3 5 6 6 10 10 12 11 15 19 12 7 14 19 22 22 24 26 27 19 23 20 18 17 21 18 23 33
5 3 5 3 3 5 2 5 3 3 3 3 3 4 3 4 7 4 8 9 10 14 12 11 12 16 12 7 9 13 17 18 18 22 25 26 26 21 18 17 21 19 18 24
6 5 3 3 4 5 6 2 3 3 3 2 2 3 5 5 6 10 11 13 13 13 14 12 9 11 11 3 11 14 14 11 13 13 18 24 25 24 29 27 19 14 17 19
5 1 4 6 2 3 2 3 6 4 3 2 3 3 4 4 5 8 10 13 13 14 14 13 14 12 15 14 18 20 20 16 11 12 15 19 24 27 26 25 29 27 22 22
1 3 2 3 3 1 5 5 2 3 3 5 1 2 7 3 2 3 10 12 11 10 12 13 14 17 16 15 19 20 21 18 15 14 11 16 19 24 27 28 28 24 23 22
5 3 6 3 4 5 2 5 5 5 2 5 4 3 4 3 2 3 6 8 8 9 10 11 12 13 15 19 19 17 14 18 18 20 16 16 18 19 20 21 25 23 23 22
5 3 2 2 3 5 3 2 4 6 1 3 3 5 1 2 4 5 7 7 9 7 9 10 11 14 14 17 19 18 17 14 10 13 15 17 17 19 19 18 16 15 16 20
6 3 2 3 3 4 2 6 3 3 1 3 4 5 4 5 5 5 4 5 7 8 8 9 11 13 16 17 21 19 17 15 13 12 15 14 17 19 15 13 14 13 14 15
5 3 1 3 4 8 2 1 4 4 4 3 2 5 5 6 6 5 5 3 4 6 6 6 9 12 15 19 21 22 22 21 19 18 18 17 17 17 16 15 15 16 15 13
5 5 4 5 2 3 4 6 6 4 3 1 3 5 2 5 6 6 3 2 1 2 4 5 8 11 14 16 19 20 21 22 21 22 23 21 21 18 20 16 14 15 16 13
7 1 2 4 5 2 4 5 4 5 3 5 5 5 3 4 5 6 5 4 2 3 3 5 6 8 11 14 16 16 16 18 17 18 18 19 16 15 16 16 15 18 19 16
5 3 5 6 4 5 5 5 6 6 4 4 6 3 6 7 8 7 6 5 5 4 5 4 4 6 9 13 15 16 17 15 17 20 22 22 21 18 17 16 18 18 18 18
5 5 4 5 5 2 4 5 8 8 6 6 5 8 6 14 14 13 8 6 7 7 7 6 6 7 9 11 12 14 17 17 21 23 24 24 23 21 20 19 19 18 16 18
1 2 4 3 3 7 6 9 9 9 4 7 4 8 8 4 8 8 10 9 9 7 7 7 6 9 10 12 15 16 18 20 21 23 24 24 23 20 21 21 22 22 21 20
8 6 4 4 1 1 6 11 14 6 6 10 10 10 6 5 12 15 14 14 13 10 8 9 9 14 16 17 20 21 21 21 22 22 22 22 21 20 19 18 19 19 18 17
7 7 3 3 1 3 6 2 6 12 6 10 5 6 10 8 13 12 14 17 13 11 10 8 13 17 18 19 21 22 22 23 22 21 21 20 20 19 17 16 15 16 14 14
4 5 3 5 4 6 4 6 7 8 8 14 16 7 5 5 5 3 10 15 17 15 14 17 23 25 24 23 24 25 23 23 22 22 21 20 19 18 17 16 16 14 13 12
6 5 4 3 5 8 6 3 5 5 5 8 14 10 9 7 4 7 15 14 12 17 20 22 26 25 27 27 27 27 26 25 24 23 21 20 20 20 19 17 15 12 9 9
5 2 6 3 4 7 7 5 5 5 7 5 11 9 12 9 6 4 14 13 20 23 24 25 28 29 32 30 30 29 28 27 24 21 20 19 18 18 16 15 12 11 10 10
8 8 5 3 2 8 9 5 9 7 2 6 7 9 13 6 8 6 10 14 14 17 21 27 26 26 31 32 32 30 30 26 23 22 20 20 19 18 16 15 14 13 13 13
5 7 8 11 8 3 11 3 8 5 5 6 8 8 11 9 7 9 8 11 14 23 25 29 28 26 32 35 36 31 32 28 25 24 23 22 19 17 16 16 16 16 16 16
4 4 5 4 7 10 9 5 3 6 4 5 6 8 10 9 10 9 8 9 11 20 24 28 26 24 27 36 38 37 33 30 30 29 26 25 23 20 18 16 16 16 17 15
5 11 9 4 5 2 7 11 7 6 4 4 4 7 13 9 9 8 8 9 14 20 23 29 29 28 30 37 37 38 35 35 34 32 30 27 24 22 20 18 17 16 14 14
6 7 8 5 9 6 7 14 9 9 10 9 8 6 6 10 10 9 8 13 17 20 23 25 27 27 29 35 37 40 38 39 38 33 32 30 27 24 22 20 17 14 12 13

GFSCGP_925_spd_132.txt.gz
Wind_Speed
2 3 6 8 7 3 2 3 5 5 5 3 3 6 6 4 2 4 6 7 9 11 12 21 21 20 15 16 12 29 30 34 31 19 15 8 13 14 16 24 29 29 29 28
4 6 10 4 4 4 3 3 5 5 3 1 5 8 5 3 1 4 7 10 11 9 13 15 17 18 14 11 13 24 29 34 36 25 21 13 19 13 18 18 22 23 24 26
7 5 3 6 3 3 3 4 4 5 5 0 5 6 3 2 2 4 7 8 7 11 15 15 14 17 12 8 8 18 23 27 30 23 22 16 19 19 17 15 18 21 23 28
6 5 6 4 4 6 3 3 3 2 4 2 3 4 4 2 6 4 8 11 10 14 14 11 10 10 10 9 5 7 13 11 18 24 25 25 16 17 21 20 15 15 21 23
6 5 5 4 6 7 6 1 1 1 2 3 2 2 6 3 4 6 9 10 13 13 13 11 9 11 11 9 10 13 10 9 12 19 22 24 20 17 26 19 18 21 18 20
5 2 5 7 2 3 3 2 5 4 2 2 2 3 5 3 3 4 7 10 13 13 14 11 15 17 18 18 18 17 17 12 12 13 19 21 25 28 23 20 26 25 26 25
1 3 2 3 3 1 3 5 3 4 3 5 1 2 8 3 2 3 5 9 9 10 11 13 12 15 17 17 17 19 21 20 13 11 11 17 23 23 23 26 28 26 24 20
6 3 7 5 5 7 2 5 5 5 2 4 3 4 4 1 4 1 3 5 6 7 8 9 11 13 14 14 14 18 20 20 17 15 13 13 16 22 23 23 23 23 23 22
5 4 1 2 3 5 3 2 4 6 2 3 3 6 5 1 3 2 5 5 4 5 6 6 8 12 12 13 12 14 17 16 19 18 15 14 15 19 20 18 20 19 19 19
7 3 1 2 4 5 3 7 3 3 1 3 4 4 5 4 4 3 2 2 3 3 4 5 7 8 11 12 12 12 12 14 15 16 16 17 16 17 19 21 19 17 19 19
5 4 2 3 6 8 3 2 4 4 4 4 2 5 6 5 4 4 5 3 2 3 3 3 5 6 9 13 15 14 14 15 16 18 20 20 19 19 17 16 14 13 13 13
6 5 4 6 1 4 4 6 6 4 4 2 3 6 1 5 5 5 5 5 3 3 1 3 6 7 11 14 16 16 17 18 18 19 24 22 21 21 21 19 17 14 14 12
9 2 3 5 4 1 4 5 4 5 3 6 5 5 1 2 4 6 5 5 4 5 4 5 6 7 10 12 16 17 16 16 18 20 24 23 21 24 25 21 18 15 15 14
7 4 6 7 5 5 5 6 6 6 4 5 6 3 6 7 8 7 6 6 6 5 6 5 5 7 10 13 14 15 15 14 14 17 19 19 20 22 23 22 21 20 17 17
5 6 5 5 2 4 5 6 9 9 5 7 6 9 8 12 13 12 8 7 7 8 7 7 7 7 8 11 13 14 15 17 18 21 23 22 22 22 21 21 22 20 19 16
1 3 4 2 5 7 5 7 10 10 4 8 4 8 8 1 7 7 9 9 8 8 7 7 7 10 11 12 13 15 18 19 20 21 22 21 22 22 22 21 22 23 23 21
8 6 4 4 3 5 5 12 15 6 6 10 9 10 6 4 9 12 12 12 13 10 10 9 9 13 15 17 20 20 21 21 22 24 23 23 23 23 23 24 24 22 21 19
8 7 3 3 2 4 6 4 6 15 6 11 5 7 10 8 12 6 7 14 13 11 11 9 13 17 17 19 20 22 22 23 23 23 23 22 22 22 21 19 18 17 15 13
2 6 3 5 5 5 4 6 8 8 9 19 20 8 6 4 5 5 10 10 15 13 12 17 24 22 21 22 23 24 24 23 23 22 21 20 18 19 18 17 17 16 14 13
4 5 4 4 5 8 8 4 6 5 6 9 18 10 10 7 4 6 14 13 9 14 21 23 26 24 24 25 26 26 25 23 22 21 20 18 16 16 16 15 15 13 11 11
4 3 6 4 4 7 6 5 6 6 7 6 12 11 12 7 5 3 13 11 17 20 23 24 28 29 31 29 29 27 26 25 21 19 17 16 14 13 12 13 11 11 10 10
8 7 5 3 3 7 7 5 9 6 1 6 7 9 12 6 7 5 9 12 13 14 20 25 25 26 30 32 32 29 29 25 22 20 18 16 15 15 15 14 13 12 12 12
5 7 8 9 7 4 11 3 6 3 4 6 8 7 10 10 7 9 8 10 12 19 22 27 26 26 31 34 35 32 31 26 24 23 22 20 19 17 17 16 15 15 14 13
5 3 4 4 8 9 9 4 2 5 3 5 5 7 11 11 9 8 8 8 9 17 20 25 25 24 27 35 37 35 31 30 29 27 25 23 22 20 18 16 15 15 15 15
5 11 8 5 4 3 4 10 7 6 4 5 5 8 13 10 10 9 8 10 12 19 22 28 27 26 29 36 37 36 31 32 32 30 27 26 24 22 20 17 16 15 13 13
6 7 10 6 7 7 8 18 10 10 9 9 8 7 6 9 11 9 8 12 16 19 22 23 25 24 27 35 37 38 35 34 34 32 30 29 27 23 21 19 16 14 11 11

GFSCGP_925_spd_135.txt.gz
Wind_Speed
1 2 6 9 5 2 3 2 4 4 4 2 4 7 10 6 3 3 9 13 14 15 17 18 16 15 13 14 14 17 21 23 20 16 13 10 11 14 22 30 30 32 32 30
2 6 8 4 5 4 2 2 4 4 3 3 4 12 3 4 2 4 8 14 16 19 18 18 16 12 10 11 9 9 15 19 16 19 16 10 14 19 24 29 26 27 28 28
6 4 4 5 4 5 3 4 4 5 2 1 5 4 2 2 3 4 9 9 13 15 16 15 15 11 8 7 3 6 11 14 18 20 18 9 10 18 22 21 21 19 19 25
5 3 6 5 4 5 2 4 3 2 1 3 3 4 2 2 1 5 9 9 12 14 14 12 11 10 11 10 13 7 6 11 17 21 21 22 14 11 17 19 17 17 18 22
6 4 4 3 5 7 5 2 2 1 2 1 1 2 3 1 3 5 9 11 12 13 13 10 11 14 16 15 15 12 8 6 9 17 22 18 17 16 21 22 17 15 18 23
4 2 4 6 3 3 5 4 4 3 2 2 2 2 3 3 2 3 6 9 9 11 11 11 15 16 19 20 19 17 15 13 12 12 15 18 18 20 28 25 20 11 16 22
1 3 2 3 4 2 3 3 1 0 1 3 2 0 6 5 5 4 4 6 9 10 9 9 11 14 16 14 15 17 18 15 11 8 11 14 17 22 22 22 21 26 24 23
6 4 8 5 5 6 4 5 4 4 2 2 1 5 2 4 6 4 2 4 5 8 8 8 9 11 13 13 14 14 15 17 13 12 12 12 16 17 15 17 21 22 23 21
5 4 2 2 3 4 4 4 3 6 1 1 2 5 3 6 5 4 5 4 4 6 7 6 8 9 10 12 13 14 15 15 14 15 13 13 13 13 17 18 18 18 18 18
5 3 1 3 4 5 3 8 3 1 3 3 3 4 3 6 8 8 8 6 1 4 6 5 6 8 9 9 10 11 11 12 12 13 14 16 15 16 16 15 15 16 15 13
5 2 2 4 5 8 2 2 4 3 2 3 2 4 6 7 9 12 9 8 5 2 3 4 4 6 8 8 9 12 13 14 12 12 13 18 22 20 20 19 19 16 15 16
6 4 4 5 2 4 3 5 6 3 5 1 0 5 3 6 8 10 10 8 5 3 1 1 3 5 9 11 11 13 13 15 14 14 17 17 17 17 19 20 20 18 17 16
9 3 3 3 3 0 4 5 4 5 3 6 5 4 2 4 6 8 12 10 7 4 3 4 6 7 8 9 13 15 15 16 16 17 20 19 20 20 19 21 24 22 22 19
10 4 6 8 5 5 6 7 7 5 4 6 6 2 5 9 10 10 11 12 10 8 6 5 5 7 7 8 11 13 14 16 17 18 21 21 22 21 21 22 22 22 20 19
6 7 6 4 2 4 5 8 13 12 7 7 5 11 9 12 15 16 15 13 13 11 9 8 7 9 10 9 9 10 12 14 16 18 18 19 21 21 21 23 23 23 22 20
2 5 5 4 5 4 3 5 14 13 3 9 3 8 7 1 7 12 15 16 16 14 13 11 10 12 12 11 11 13 15 18 20 23 23 22 22 21 22 23 22 22 23 23
9 7 5 4 4 5 5 15 13 8 6 12 10 11 6 5 9 14 16 17 18 17 14 13 12 15 15 16 17 17 18 21 21 23 23 23 23 23 23 24 25 24 24 23
8 7 2 4 4 5 5 1 11 17 5 13 5 8 11 8 10 8 13 19 18 17 16 14 16 15 19 19 20 22 22 21 22 23 23 24 25 25 25 24 23 22 20 18
2 6 4 6 4 4 3 5 8 9 10 21 23 9 7 4 4 5 12 14 19 19 20 24 24 23 23 23 24 25 24 24 23 23 23 23 23 24 23 21 20 19 18 17
4 4 4 4 6 8 8 4 6 6 6 11 22 15 11 8 4 8 15 15 14 20 22 24 25 26 26 26 28 26 25 24 22 23 23 22 21 22 21 20 20 18 16 17
4 2 8 4 3 5 6 5 6 6 6 5 15 12 14 11 6 2 12 12 17 21 23 24 28 29 30 31 31 25 26 25 26 24 23 21 19 19 19 19 17 17 16 16
9 7 4 2 4 5 7 6 9 7 1 5 7 12 15 6 6 4 10 15 16 16 21 27 26 24 30 35 34 26 28 30 27 26 25 23 22 21 20 17 17 15 15 15
5 7 7 9 6 2 11 1 5 4 4 4 7 7 13 9 6 9 9 13 15 22 24 27 27 26 31 37 36 30 33 32 30 28 27 25 23 21 19 19 18 16 14 14
3 2 4 5 6 7 9 3 3 4 3 5 5 11 14 12 8 7 9 10 11 19 22 25 24 24 25 33 35 33 32 32 31 29 27 26 24 22 20 17 15 15 16 14
5 10 6 3 2 3 3 9 6 6 4 5 6 8 15 11 10 8 8 11 12 18 20 25 24 23 27 34 35 34 33 35 33 29 28 27 26 25 23 20 19 17 14 14
5 7 11 8 8 6 7 17 12 9 10 8 9 8 7 11 12 8 9 12 17 19 22 22 23 23 26 34 35 38 36 36 36 30 29 29 27 25 24 22 18 16 12 13

GFSCGP_925_spd_141.txt.gz
Wind_Speed
13 10 14 15 14 16 13 13 15 13 6 8 16 16 14 10 12 11 11 9 9 12 14 16 18 19 18 17 17 17 18 17 16 16 17 13 11 10 10 14 21 29 31 34
10 15 17 13 8 9 12 16 16 13 5 8 16 18 15 13 10 9 4 6 9 11 12 16 21 12 11 10 10 14 16 16 17 16 13 8 6 6 7 15 21 32 34 32
18 8 3 12 12 13 15 15 15 15 11 13 17 22 15 7 6 5 6 3 5 8 9 11 14 15 13 11 6 10 12 14 16 18 14 9 9 4 9 14 17 29 32 29
15 20 12 10 14 11 14 13 11 12 8 8 2 7 6 12 10 9 4 1 4 5 7 9 11 12 11 12 1 2 7 14 15 20 13 10 8 9 11 16 22 22 25 25
9 11 13 16 18 15 14 0 5 8 10 14 16 7 9 10 10 11 4 2 4 4 6 9 9 10 10 8 10 7 7 11 13 17 11 11 10 10 16 22 22 26 23 25
20 0 10 13 5 9 5 5 6 8 8 9 18 12 6 10 10 8 5 6 5 3 5 8 8 9 11 10 9 11 10 8 6 9 10 12 11 10 14 11 26 26 22 22
19 20 9 8 8 5 10 7 3 5 5 4 4 5 13 8 6 6 8 8 6 4 3 6 8 9 13 14 14 12 12 12 11 8 9 10 10 7 15 13 19 25 22 24
18 11 24 18 20 9 17 15 5 5 4 2 2 7 2 6 9 9 7 7 7 4 4 4 6 11 13 13 14 14 16 16 14 8 10 10 11 8 19 19 16 15 20 24
11 12 6 6 16 16 11 13 13 13 11 6 7 10 5 9 11 10 10 9 8 6 5 4 5 8 10 13 13 13 14 14 13 14 12 11 11 16 19 18 20 20 19 20
11 8 10 6 7 10 10 10 7 6 4 6 8 10 6 15 15 13 12 12 11 7 5 4 4 6 9 9 10 11 13 14 14 14 15 15 13 13 14 12 15 15 16 17
19 12 7 9 14 16 10 12 8 5 9 4 5 3 7 14 16 15 14 13 12 11 7 4 3 5 7 9 9 10 11 12 14 16 17 18 17 17 16 18 17 16 15 17
26 12 12 17 1 17 20 18 18 7 9 8 9 3 4 11 12 13 13 13 12 11 10 6 5 5 6 7 9 10 10 12 13 14 17 20 20 18 21 19 17 16 16 15
13 14 13 13 7 7 12 20 20 19 11 12 8 1 4 10 11 12 14 14 13 13 11 8 6 6 7 6 8 10 10 11 12 13 14 15 18 23 22 21 20 20 18 16
7 15 24 17 14 14 12 21 23 20 14 16 16 5 11 12 13 13 14 15 15 14 13 10 7 8 9 9 8 9 10 11 14 14 15 15 18 21 21 19 19 18 15 13
7 13 23 24 25 9 13 21 26 27 26 15 16 16 13 17 17 16 16 16 16 15 14 12 10 9 11 12 10 9 10 10 12 14 16 16 16 17 16 17 17 18 17 13
6 14 19 22 23 12 14 16 22 28 25 24 17 12 6 16 16 16 17 18 17 17 17 15 13 14 14 14 14 12 11 11 12 14 16 18 20 21 20 19 17 20 19 17
5 12 17 18 20 11 15 23 20 21 24 24 21 21 9 11 19 20 20 19 19 18 18 18 17 17 20 19 17 15 14 13 12 15 15 16 16 16 16 16 15 16 16 15
6 7 9 13 14 16 14 18 21 22 23 21 21 11 9 13 16 18 19 20 20 19 19 19 18 21 20 20 19 18 18 17 17 16 15 15 15 16 15 15 15 15 15 14
11 6 5 9 13 12 5 4 21 18 20 21 21 17 13 11 11 15 20 20 20 21 19 23 25 24 22 21 20 20 19 18 18 18 17 17 17 17 17 16 16 14 14 13
19 15 7 5 17 21 12 11 11 13 13 16 22 19 19 14 13 12 21 21 20 21 25 25 27 26 24 23 23 22 20 19 17 17 16 16 15 14 14 14 13 11 11 11
12 6 11 13 11 14 10 14 12 14 5 16 18 21 20 20 15 12 21 19 20 23 26 28 28 26 26 25 24 23 22 20 19 19 18 17 16 16 16 15 13 13 12 12
14 13 7 11 16 20 8 11 14 8 1 2 8 15 23 18 11 15 21 21 20 20 26 29 26 25 27 26 25 24 23 21 20 20 20 19 19 18 19 18 16 15 13 12
17 11 12 14 18 5 16 8 15 2 3 2 6 10 16 18 13 16 18 20 20 21 25 27 26 26 26 26 26 24 23 23 22 21 20 18 16 14 14 13 13 11 11 11
24 22 16 16 19 24 11 11 3 2 2 2 5 11 15 17 15 14 17 17 18 22 24 28 27 26 26 26 25 24 24 25 24 22 20 19 18 17 16 14 14 13 14 12
12 16 19 22 21 15 16 13 4 5 2 4 5 11 15 16 16 16 16 17 17 22 27 29 27 26 26 27 27 26 27 27 25 23 22 20 17 17 15 13 14 13 12 13
13 14 13 12 16 14 17 13 11 10 8 7 9 12 13 13 15 15 16 16 20 22 28 26 27 27 28 28 27 27 29 30 28 25 24 23 21 22 19 17 14 14 11 15

GFSCGP_925_spd_144.txt.gz
Wind_Speed
11 8 11 13 14 15 14 13 9 10 10 5 6 11 14 12 7 7 8 6 2 8 9 19 17 17 19 20 14 11 13 17 13 15 18 17 19 13 14 15 15 24 28 29
13 15 14 14 15 10 8 11 11 11 12 1 7 13 14 12 6 5 4 6 7 8 9 9 13 17 17 20 10 12 14 16 16 16 16 14 14 10 12 13 15 19 26 30
16 13 15 13 13 10 11 13 12 13 10 6 11 17 14 9 6 8 5 6 8 8 5 6 9 11 15 17 15 5 14 13 16 16 17 12 13 8 5 8 17 13 26 34
14 17 20 10 11 11 12 10 9 12 4 4 4 6 11 4 7 8 8 7 9 7 3 3 6 10 12 14 14 4 5 12 13 15 17 13 10 5 7 12 9 20 28 33
9 7 7 15 15 11 11 3 5 5 6 9 10 5 5 10 8 10 9 9 9 8 3 3 5 8 12 14 14 10 6 11 14 15 14 11 10 8 9 12 18 18 24 28
17 8 4 11 9 8 4 4 6 6 4 5 15 11 6 7 9 12 9 10 10 7 5 4 6 8 12 15 14 10 8 7 10 18 13 12 11 11 10 15 22 26 28 23
16 20 6 5 4 3 6 5 2 3 3 5 6 2 6 5 6 11 12 12 9 8 6 4 5 9 11 14 17 16 12 14 11 13 12 13 12 10 13 20 23 24 30 27
15 12 20 13 17 7 11 8 5 5 2 3 2 5 4 10 9 9 10 13 10 8 6 5 5 11 11 14 16 15 15 16 12 13 12 9 10 8 14 17 17 21 28 29
9 14 7 14 12 16 9 9 9 4 5 3 5 6 1 10 9 8 8 12 10 8 8 6 7 9 9 12 16 14 15 17 14 12 11 10 9 11 12 11 14 14 21 24
8 9 2 5 8 13 15 6 3 4 3 5 7 8 5 11 13 12 11 11 10 11 10 7 7 10 8 9 14 15 14 15 15 14 13 13 11 12 12 13 15 14 17 20
24 14 1 6 8 12 7 6 7 6 5 3 4 0 6 12 16 16 12 11 13 11 11 8 9 10 7 9 12 16 15 18 20 17 15 16 16 15 17 17 15 15 15 16
19 11 14 10 7 15 15 11 14 4 6 5 2 5 4 10 9 14 12 12 13 12 10 10 10 9 8 9 11 13 17 19 19 20 19 20 21 20 21 21 19 18 18 16
5 10 8 9 6 3 8 15 16 15 8 6 5 2 3 9 8 10 11 11 12 14 12 10 8 8 10 10 11 12 15 18 18 17 19 20 21 22 23 24 23 21 21 19
10 7 16 17 14 7 8 15 20 18 13 12 10 3 6 8 9 8 12 11 12 14 13 12 8 9 12 12 12 14 14 17 18 18 21 21 20 22 22 24 25 25 24 23
7 10 20 22 22 15 12 16 21 23 22 14 14 13 11 14 13 12 11 12 13 15 14 13 10 9 13 15 14 15 16 17 19 20 19 20 18 22 23 23 23 21 20 21
7 10 15 17 19 23 20 16 20 23 24 22 8 8 5 12 9 11 14 15 15 15 15 15 12 12 15 17 17 16 18 18 18 20 21 21 21 21 21 21 20 21 21 20
5 7 12 19 18 16 18 21 15 13 21 18 18 16 6 11 15 14 15 16 16 15 16 15 14 15 17 19 20 18 19 20 19 21 21 23 23 23 24 25 24 22 21 20
3 4 7 15 12 21 12 7 13 16 13 21 23 6 9 8 16 13 13 16 14 16 18 16 14 19 22 22 20 21 21 21 23 21 20 20 21 22 21 21 21 21 21 21
13 3 3 5 13 9 8 15 11 18 19 15 17 18 8 7 8 9 16 16 15 15 17 21 25 23 28 27 25 24 22 22 21 21 21 21 22 23 23 23 22 21 21 19
18 11 3 4 7 12 15 18 9 13 17 15 20 15 13 9 7 7 18 18 15 15 25 27 29 25 28 28 29 26 25 26 24 23 23 23 23 25 23 22 21 19 18 18
17 12 16 10 4 8 14 11 5 15 5 13 16 19 16 15 11 9 16 17 17 20 26 31 30 26 27 29 30 24 26 24 25 25 23 21 21 21 20 19 18 17 17 16
11 11 7 9 6 11 10 4 16 7 8 2 4 16 17 14 9 9 18 19 19 19 26 31 28 28 29 30 30 26 24 25 27 26 25 23 22 22 21 20 19 18 18 18
15 9 7 13 16 6 16 9 7 2 1 4 6 4 15 11 14 10 17 20 19 19 27 31 29 30 28 31 29 26 28 30 30 28 26 25 23 22 21 21 20 18 17 17
20 15 14 14 16 11 22 17 3 5 0 5 5 7 10 14 11 13 17 17 18 20 25 31 30 28 28 30 29 29 32 34 33 30 28 27 26 24 22 21 20 20 19 18
10 11 23 21 16 12 20 19 15 6 3 5 5 4 8 13 11 13 16 18 18 21 29 32 30 29 30 32 31 32 34 36 33 31 29 28 26 24 23 21 21 19 19 19
8 9 5 16 16 16 18 16 6 9 7 7 4 4 3 8 10 11 15 15 19 20 29 28 28 29 29 31 31 34 36 37 33 28 28 29 28 26 25 24 21 17 15 16

GFSCGP_925_spd_147.txt.gz
Wind_Speed
5 3 8 11 9 8 8 6 7 6 4 6 11 10 11 10 7 9 9 8 8 8 4 14 17 20 20 16 16 11 12 12 14 13 18 20 21 21 15 15 16 19 22 26
4 13 13 11 12 10 10 9 5 5 7 2 5 11 10 10 9 8 10 8 8 6 7 11 16 14 15 14 13 10 10 11 16 13 13 17 17 16 17 15 16 19 20 24
12 12 13 15 14 11 8 4 4 7 7 4 5 9 8 5 4 10 9 9 8 8 8 7 7 10 14 14 13 6 8 9 15 10 12 16 14 13 14 16 14 17 19 24
9 16 18 9 10 10 5 7 5 3 2 4 5 6 6 4 5 7 10 9 8 8 6 5 4 6 10 11 11 3 5 10 13 14 18 19 21 14 12 12 12 16 17 23
9 5 10 15 17 8 7 4 3 0 2 4 2 2 7 3 6 8 8 10 9 8 8 5 2 6 7 9 10 10 3 6 12 17 22 20 18 13 12 12 15 15 20 23
13 10 4 8 4 5 6 4 2 2 3 3 6 9 5 4 9 8 8 11 11 9 8 5 6 8 10 11 11 9 8 8 9 15 16 14 12 12 14 16 18 18 20 26
10 17 8 4 4 2 6 7 2 2 1 6 4 5 11 6 10 15 19 14 12 9 8 5 6 8 9 11 10 9 7 11 5 9 10 8 5 5 6 12 17 19 24 25
9 10 13 5 10 7 7 8 6 6 4 5 5 5 5 2 4 14 16 15 12 9 8 7 7 10 7 8 9 10 11 11 12 12 11 7 7 2 6 13 15 20 25 28
5 7 8 12 6 14 5 8 7 2 2 2 4 6 3 3 8 12 15 15 12 10 10 8 9 10 7 9 8 9 11 11 10 10 9 8 7 7 9 8 12 15 26 34
9 16 7 5 6 6 9 6 3 1 3 5 6 5 6 8 11 13 15 14 12 11 9 8 9 11 9 9 9 9 11 13 12 11 11 11 10 10 9 11 12 21 24 31
16 13 5 3 4 11 5 6 3 5 5 5 3 5 5 18 17 17 13 13 14 12 10 9 9 12 12 10 11 9 12 13 12 13 14 14 15 15 15 14 12 18 24 25
7 12 17 18 6 7 14 18 15 5 5 5 3 6 3 10 16 15 13 13 14 13 11 9 11 12 12 12 14 12 11 14 14 13 15 16 15 16 18 17 15 15 16 16
10 5 12 1 4 4 6 5 11 9 2 6 5 5 3 8 12 13 15 14 14 13 13 8 8 10 11 13 14 16 15 15 16 17 18 18 18 20 21 21 20 19 19 17
14 5 11 17 10 7 6 11 12 15 13 8 8 4 2 6 11 11 14 17 16 15 15 11 8 9 12 14 15 17 16 17 18 20 20 20 21 22 22 21 21 20 21 22
2 6 10 15 11 9 10 14 23 23 20 12 17 17 10 10 12 17 13 16 17 16 15 13 11 9 13 15 16 18 19 17 20 22 22 22 22 22 22 22 21 20 21 22
2 5 10 11 12 9 15 14 10 18 21 20 17 10 12 14 8 10 17 18 18 17 16 16 15 14 16 17 17 19 21 19 20 23 22 22 22 22 21 21 22 22 21 21
0 5 6 7 13 7 11 23 21 10 18 15 20 22 2 4 17 18 18 19 20 19 18 20 19 17 20 20 21 20 21 23 22 22 21 21 21 22 21 22 22 22 22 21
6 7 6 4 6 13 11 6 14 18 12 21 16 9 12 9 16 17 20 21 19 19 19 18 18 21 23 24 23 23 24 24 24 23 22 23 24 25 25 24 23 23 22 22
12 5 4 6 5 11 7 14 4 6 14 8 15 16 11 8 6 7 17 20 22 22 19 24 28 27 29 28 27 27 24 25 23 23 23 22 25 25 25 25 24 23 23 21
14 14 8 6 3 5 10 16 5 3 15 10 15 16 19 8 7 9 18 19 17 20 28 28 29 29 31 29 30 28 25 25 22 26 26 27 27 28 27 26 25 24 21 21
4 12 17 12 10 9 7 17 10 10 6 11 17 17 14 14 19 7 15 17 19 26 29 33 32 30 32 34 33 26 27 26 31 30 30 29 29 28 27 27 25 25 24 23
9 5 8 11 11 20 10 11 11 6 5 4 4 4 10 18 8 12 19 19 20 22 28 33 30 29 32 35 31 26 27 34 34 35 33 31 30 29 30 28 27 26 26 26
11 11 4 4 8 10 4 16 19 9 5 2 5 6 6 13 9 13 17 20 21 24 30 33 31 31 31 34 33 30 31 38 39 37 35 34 31 31 30 30 29 28 28 26
7 12 14 11 17 17 15 20 13 10 6 7 5 6 6 9 11 14 17 18 19 21 27 32 33 30 29 34 34 34 40 40 40 38 36 34 32 30 29 27 28 28 28 26
7 5 5 10 14 17 22 20 25 21 18 12 8 6 8 7 11 17 15 19 19 21 31 34 33 31 31 33 33 38 41 42 38 37 37 36 34 32 30 27 27 25 23 23
9 12 7 10 12 12 19 20 7 9 14 15 9 7 5 4 10 14 17 18 19 21 30 30 31 31 32 33 33 39 43 43 39 33 33 35 34 31 29 27 23 18 17 17